Location: Ch�tillon
(48.8024°N, 2.2935°E)
Time: 02:26:12
(UTC+00:00)

Oscar 19 - Pass Details

Date: 09 July 2022
Orbit: 773 x 790 km, 98.8° (Epoch: 08 August)

Event Time Altitude Azimuth Distance (km) Brightness Sun altitude
Rises 02:45:31 0° 22° (NNE) 3,262 15.5 -9.4°
Reaches altitude 10° 02:48:03 10° 31° (NNE) 2,330 14.7 -9.2°
Maximum altitude 02:52:42 34° 96° (E) 1,265 12.1 -8.7°
Drops below altitude 10° 02:57:19 10° 161° (SSE) 2,317 12.8 -8.2°
Sets 02:59:49 0° 171° (S) 3,242 13.5 -7.9°
